DW6157 Weather Reports


time (UTC)temp
F
wind
direction
speed
knots
gust
knots
rain 1hr
in
rain 24hr
in
rain mn
in
humidity
%
barometer
mb
20260507083047 52 77 1.7 6.1 0.00 0.00 0.00 36 1016.8
20260507081553 52 60 4.3 7.8 0.00 0.00 0.00 38 1016.8
20260507080043 52 56 0.9 7.8 0.00 0.00 0.00 40 1016.6
20260507074542 51 39 0.0 6.1 0.00 0.00 0.00 41 1016.5
20260507073053 51 47 3.5 6.1 0.00 0.00 0.00 42 1016.4
20260507071536 51 56 1.7 6.1 0.00 0.00 0.00 44 1016.3
20260507070041 50 48 1.7 6.1 0.00 0.00 0.00 44 1016.4
20260507064531 49 13 2.6 6.1 0.00 0.00 0.00 44 1016.2
20260507063027 47 42 3.5 7.8 0.00 0.00 0.00 46 1016.1
20260507061531 47 31 0.9 7.0 0.00 0.00 0.00 49 1016.0
20260507060029 46 353 1.7 5.2 0.00 0.00 0.00 51 1015.8
20260507054522 44 311 1.7 4.3 0.00 0.00 0.00 54 1015.8
20260507053016 43 300 1.7 6.1 0.00 0.00 0.00 56 1015.8
20260507051511 42 306 0.0 6.1 0.00 0.00 0.00 58 1015.7
20260507050020 42 340 0.0 5.2 0.00 0.00 0.00 59 1015.6
20260507044519 41 322 0.0 6.1 0.00 0.00 0.00 59 1015.5
20260507043004 40 297 0.0 0.0 0.00 0.00 0.00 63 1015.5
20260507041501 37 297 0.0 0.0 0.00 0.00 0.00 69 1015.4
20260507040100 35 290 0.0 0.0 0.00 0.00 0.00 72 1015.1
20260507034604 34 290 0.0 0.0 0.00 0.00 0.00 71 1015.0
20260507033059 34 290 0.0 0.0 0.00 0.00 0.00 70 1014.9
20260507031555 34 290 0.0 0.0 0.00 0.00 0.00 69 1014.9
20260507030106 34 290 0.0 0.0 0.00 0.00 0.00 69 1014.9
20260507024556 34 290 0.0 0.0 0.00 0.00 0.00 69 1014.7
20260507023052 35 290 0.0 0.0 0.00 0.00 0.00 68 1014.5
20260507021607 35 290 0.0 0.0 0.00 0.00 0.00 68 1014.5
20260507020054 35 291 0.0 0.0 0.00 0.00 0.00 69 1014.4
20260507014608 35 291 0.0 0.0 0.00 0.00 0.00 68 1014.3
20260507013051 35 291 0.0 0.0 0.00 0.00 0.00 68 1014.2
20260507011544 35 291 0.0 1.7 0.00 0.00 0.00 67 1014.1
20260507010047 36 291 0.0 0.0 0.00 0.00 0.00 68 1014.0
20260507004543 36 291 0.0 1.7 0.00 0.00 0.00 66 1013.9
20260507003038 37 293 0.0 1.7 0.00 0.00 0.00 66 1013.9
20260507001536 37 295 0.0 0.9 0.00 0.00 0.00 67 1013.7
20260507000034 37 295 0.0 2.6 0.00 0.00 0.00 65 1013.7
20260506234533 37 316 0.0 0.9 0.00 0.00 0.00 65 1013.5
20260506233030 38 320 0.0 0.0 0.00 0.00 0.00 65 1013.5
20260506231528 38 320 0.0 0.0 0.00 0.00 0.00 66 1013.4
20260506230026 39 320 0.0 0.0 0.00 0.00 0.00 66 1013.3
20260506224525 39 320 0.0 0.0 0.00 0.00 0.00 66 1013.2
20260506223023 39 320 0.0 0.9 0.00 0.00 0.00 65 1013.2
20260506221524 39 324 0.0 0.9 0.00 0.00 0.00 66 1013.0
20260506220026 38 256 0.0 0.0 0.00 0.00 0.00 70 1012.9
20260506214519 39 245 0.0 0.0 0.00 0.00 0.00 71 1012.7
20260506213018 39 245 0.0 0.0 0.00 0.00 0.00 73 1012.6
20260506211516 39 245 0.0 0.0 0.00 0.00 0.00 74 1012.5
20260506210018 39 245 0.0 0.0 0.00 0.00 0.00 73 1012.4
20260506204518 41 245 0.0 0.0 0.00 0.00 0.00 72 1012.3
20260506203013 41 245 0.0 0.0 0.00 0.00 0.00 70 1012.2
20260506201513 42 245 0.0 0.0 0.00 0.00 0.00 71 1012.1
20260506200021 43 244 0.0 0.0 0.00 0.00 0.00 68 1012.1
20260506194513 44 243 0.0 0.0 0.00 0.00 0.00 66 1012.0
20260506193014 45 243 0.0 0.0 0.00 0.00 0.00 62 1011.9
20260506191613 46 243 0.0 0.0 0.00 0.00 0.00 60 1011.9
20260506190010 47 243 0.0 0.0 0.00 0.00 0.00 57 1011.8
20260506184510 48 257 0.0 1.7 0.00 0.00 0.00 56 1011.8
20260506183009 48 237 0.0 1.7 0.00 0.00 0.00 55 1011.8
20260506181509 49 229 0.0 3.5 0.00 0.00 0.00 57 1011.7
20260506180008 50 210 2.6 5.2 0.00 0.00 0.00 57 1011.4
20260506174507 50 215 1.7 3.5 0.00 0.00 0.00 58 1011.5
20260506173005 50 218 2.6 5.2 0.00 0.00 0.00 56 1011.6
20260506171507 52 200 4.3 7.8 0.00 0.00 0.00 52 1011.7
20260506170005 52 229 2.6 7.8 0.00 0.00 0.00 51 1011.6
20260506164507 52 210 3.5 7.0 0.00 0.00 0.00 51 1011.7
20260506163006 52 210 5.2 8.7 0.00 0.00 0.00 48 1011.7
20260506161504 52 214 4.3 7.8 0.00 0.00 0.00 50 1011.6
20260506160007 51 185 3.5 7.8 0.00 0.00 0.00 47 1011.5
20260506154502 52 200 5.2 9.6 0.00 0.00 0.00 43 1011.6
20260506153001 54 226 5.2 8.7 0.00 0.00 0.00 39 1011.6
20260506151602 55 210 4.3 7.8 0.00 0.00 0.00 42 1011.6
20260506144601 55 205 5.2 9.6 0.00 0.00 0.00 38 1011.8
20260506143057 55 185 4.3 9.6 0.00 0.00 0.00 41 1011.8
20260506141558 56 200 4.3 8.7 0.00 0.00 0.00 42 1011.8
20260506134555 56 191 2.6 7.8 0.00 0.00 0.00 41 1011.9
20260506133100 56 196 3.5 8.7 0.00 0.00 0.00 46 1011.9
20260506131556 55 210 4.3 8.7 0.00 0.00 0.00 45 1012.1
20260506130055 55 239 3.5 8.7 0.00 0.00 0.00 46 1012.1
20260506124554 55 205 4.3 9.6 0.00 0.00 0.00 47 1012.2
20260506123052 55 200 5.2 8.7 0.00 0.00 0.00 45 1012.3
20260506121551 55 231 3.5 8.7 0.00 0.00 0.00 47 1012.4
20260506120107 55 210 3.5 8.7 0.00 0.00 0.00 50 1012.5
20260506114603 54 99 1.7 6.1 0.00 0.00 0.00 41 1012.5
20260506113051 55 205 1.7 7.0 0.00 0.00 0.00 48 1012.5
20260506111553 56 210 1.7 7.8 0.00 0.00 0.00 47 1012.6
20260506110046 55 170 1.7 7.0 0.00 0.00 0.00 50 1012.6
20260506104545 54 233 0.9 7.8 0.00 0.00 0.00 48 1012.6
20260506103041 52 143 0.9 8.7 0.00 0.00 0.00 50 1012.6
20260506101540 52 157 0.0 6.1 0.00 0.00 0.00 52 1012.6
20260506100041 53 106 2.6 7.8 0.00 0.00 0.00 46 1012.8
20260506094544 54 166 2.6 7.0 0.00 0.00 0.00 48 1012.8
20260506093055 52 49 0.0 3.5 0.00 0.00 0.00 36 1012.7
20260506091534 51 58 1.7 4.3 0.00 0.00 0.00 36 1012.8
20260506090038 52 310 1.7 6.1 0.00 0.00 0.00 39 1012.7
20260506084530 51 95 0.0 2.6 0.00 0.00 0.00 42 1012.8